890  
ASUS44 KMEG 010410  
RWRMEG  
MEMPHIS CWA HOURLY WEATHER ROUNDUP  
NATIONAL WEATHER SERVICE MEMPHIS TN  
1100 PM CDT SUN APR 30 2017  
   
..WEST TENNESSEE
 
 
 
CITY SKY/WX TMP DP RH WIND PRES REMARKS
 
MEMPHIS INTL PTCLDY 58 50 75 SW7 29.78S  
NWS MEMPHIS N/A 60 N/A N/A MISG N/A  
JACKSON CLOUDY 64 51 62 SW18G29 29.76R  
SOMERVILLE MOCLDY 61 50 67 SW15G25 29.78R  
BOLIVAR CLOUDY 64 52 63 SW15G25 29.79R  
LEXINGTON MOCLDY 66 64 94 S14G22 29.73R FOG  
SAVANNAH MOCLDY 68 64 88 S12G18 29.75S  
DYERSBURG CLOUDY 61 50 67 SW15G30 29.76R  
UNION CITY PTCLDY 61 52 72 SW15G24 29.72R  
HUNTINGDON CLOUDY 66 61 82 SW12G21 29.71R  
 
   
..EASTERN ARKANSAS
 
 
 
CITY SKY/WX TMP DP RH WIND PRES REMARKS
 
JONESBORO CLEAR 58 45 62 SW17 29.71F  
WEST MEMPHIS CLEAR 59 51 75 S10 29.76F  
BATESVILLE CLOUDY 59 39 47 S14G21 29.69S  
NEWPORT CLEAR 56 47 71 S12 29.71S  
WALNUT RIDGE CLEAR 57 41 54 S18 29.68F  
BLYTHEVILLE CLEAR 59 50 72 SW13 29.75R  
SEARCY CLOUDY 60 47 61 S15G24 29.72F  
STUTTGART PTCLDY 59 39 47 S17 29.76F  
PINE BLUFF CLEAR 57 47 69 S15G23 29.76F  
MONTICELLO CLEAR 58 48 69 S12 29.80F  
 
   
..NORTH MISSISSIPPI
 
 
 
CITY SKY/WX TMP DP RH WIND PRES REMARKS
 
TUPELO MOCLDY 67 54 63 SW10G23 29.82R  
OXFORD MOCLDY 59 50 72 SW8 29.85R  
TUNICA CLEAR 55 50 82 S10 29.80F  
CLARKSDALE CLEAR 59 52 77 S8 29.82S  
CORINTH LGT RAIN 68 63 83 SW17G24 29.78R  
GREENWOOD CLEAR 60 53 77 SW8 29.87R  
COLUMBUS CLOUDY 68 67 99 S10 29.82R  
STARKVILLE CLOUDY 68 64 88 S6 29.85R  
GOLDEN TRIANGL CLOUDY 66 63 88 S9 29.80R  
 
   
..SOUTHEAST MISSOURI
 
 
 
CITY SKY/WX TMP DP RH WIND PRES REMARKS
 
KENNETT CLEAR 59 50 72 S12G17 29.70S  
MALDEN CLEAR 59 45 58 SW15G23 29.70S  
WEST PLAINS LGT RAIN 49 44 83 SW15G26 29.64R  
POPLAR BLUFF CLEAR 58 44 60 S13 29.66S  
CAPE GIRARDEAU CLEAR 60 50 69 SW23G31 29.65S  
 
   
..NORTHWEST ALABAMA
 
 
 
CITY SKY/WX TMP DP RH WIND PRES REMARKS
 
MUSCLE SHOALS HVY RAIN 67 63 87 S13 29.82R FOG  
 
   
..MIDDLE TENNESSEE
 
 
 
CITY SKY/WX TMP DP RH WIND PRES REMARKS
 
NASHVILLE LGT RAIN 69 63 81 S17 29.80S  
CLARKSVILLE LGT RAIN 68 62 81 S15G21 29.70S  
COLUMBIA MOCLDY N/A N/A N/A S10 29.76F  
 
   
..WESTERN KENTUCKY
 
 
 
CITY SKY/WX TMP DP RH WIND PRES REMARKS
 
PADUCAH CLOUDY 62 53 72 SW21G31 29.67R  
FORT CAMPBELL DRIZZLE 66 64 94 S9 29.70S  
 
   
..CENTRAL ARKANSAS
 
 
 
CITY SKY/WX TMP DP RH WIND PRES REMARKS
 
LITTLE ROCK CLOUDY 56 47 71 SW12 29.74R  
 
SKY/WX REPORTED AS FAIR MEANS FEW OR NO CLOUDS BELOW  
12 THOUSAND FEET.  
 
 
 
CLICK HERE TO GO TO PREVIOUS BULLETINS.

The Nexlab TN Page
The Nexlab MS Page
The Nexlab AR Page Main Text Page